Zurück zum Katalog

METEOR 3-1 DEB

LostPO
NORAD 29136·DEBRIS·🇷🇺 Russia

Gestartet Oct 24, 1985 von Plesetsk Cosmodrome

Loading…

Nächste Überflüge (nächste 24 Stunden)

TLE

VeraltetSource: Space-Track

Epoche: Jul 29, 2026, 14:03 UTC

1 29136U 85100C   26210.58581310  .00000491  00000-0  11080-2 0  9993
2 29136  82.5502 327.4951 0042295 113.1212 260.6216 13.24487877130883

Verfolge METEOR 3-1 DEB in Echtzeit mit AllMySat

Download on the App Store